ROMMA est une association bénévole à but non lucratif. Votre soutien est indispensable : ADHERER à ROMMA ou FAIRE un DON

La Beaume - (05, Hautes Alpes)

Buëch (820 m)   Longitude: 5° 40' 9'' E   Latitude: 44° 32' 3'' N Station partenaire n°75
 

Détail journalier du     <<     >>

Température Precipitation Humidité Pression Vent Dir Rafale Dir. rafale Ensol.
Heure (°C) (mm) (%) (hPa) (km/h) (km/h) (min)
01:00 9.308610172SO6ONO0
02:00 8.409010182NE5NNO0
03:00 7.909110172N6N0
04:00 7.109310182SSE6SSE0
05:00 7.309410182O3O0
06:00 6.509310182O5O0
07:00 7.00.29510182OSO6N0
08:00 6.809510192OSO5OSO0
09:00 8.6095101903ONO0
10:00 11.509410191ONO5SSO30
11:00 14.207810193E6ESE60
12:00 16.007110182E6E60
13:00 17.206710173ESE8SE30
14:00 17.406710173SSE8ESE0
15:00 18.206210172E5ESE30
16:00 17.207210172SO6O30
17:00 15.706910172O6NO60
18:00 13.307610173NO8SO0
19:00 12.607910182SSO6SO0
20:00 10.808310182SSO5SSO0
21:00 10.208710182E5SSE0
22:00 8.808910192SO6OSO0
23:00 8.509210192OSO6OSO0
minuit 8.409310192OSO5OSO0

Graphique du 30-10-2019

 

Serveur OMMA